Regional Weather Roundup
Issued by NWS Charleston, WV

Home | Current Version | Previous Version | Text Only | Print | Product List | Glossary Off
Versions: 1 2 3 4 5 6 7 8 9 10 11 12 13 14 15 16 17 18 19 20 21 22 23 24 25 26 27 28 29 30 31 32 33 34 35 36 37 38 39 40 41 42 43 44 45 46 47 48 49 50

008
ASUS41 KRLX 061810
RWRRLX
West Virginia Regional Weather Roundup
National Weather Service Charleston WV
200 PM EDT FRI MAY 06 2016

Note: "fair" indicates few or no clouds below 12,000 feet with no
significant weather and/or obstructions to visibility.

WVZ003-061900-
Northern Panhandle of West Virginia

CITY           SKY/WX    TMP DP  RH WIND       PRES   REMARKS
WHEELING       PTSUNNY   65  34  31 NW20G31   29.78F
$$

WVZ009-061900-
Northwest West Virginia

CITY           SKY/WX    TMP DP  RH WIND       PRES   REMARKS
PARKERSBURG    PTSUNNY   66  37  34 N14G22    29.85F
$$

WVZ006-061900-
Western West Virginia

CITY           SKY/WX    TMP DP  RH WIND       PRES   REMARKS
HUNTINGTON     PTSUNNY   64  42  44 NW10      29.89F
$$

WVZ015-061900-
West Central West Virginia

CITY           SKY/WX    TMP DP  RH WIND       PRES   REMARKS
CHARLESTON     PTSUNNY   65  39  38 NW15G28   29.83F
$$

WVZ022-031-061900-
North Central West Virginia

CITY           SKY/WX    TMP DP  RH WIND       PRES   REMARKS
CLARKSBURG       N/A     65  40  39 NW10      29.76F
MORGANTOWN     PTSUNNY   64  38  38 N9G22     29.75F
$$

WVZ025-035-042-045-061900-
Southern West Virginia

CITY           SKY/WX    TMP DP  RH WIND       PRES   REMARKS
BECKLEY        PTSUNNY   55  39  54 N16G23    29.84F
LOGAN          NOT AVBL
BLUEFIELD      CLOUDY    53  37  54 N12G24    29.86S
LEWISBURG      CLOUDY    54  39  57 N15G22    29.81F
$$

WVZ047-061900-
Northern Mountains of West Virginia

CITY           SKY/WX    TMP DP  RH WIND       PRES   REMARKS
ELKINS         CLOUDY    56  39  53 VRB6      29.77F
$$

WVZ052-061900-
Eastern Panhandle of West Virginia

CITY           SKY/WX    TMP DP  RH WIND       PRES   REMARKS
MARTINSBURG    RAIN      52  48  86 NW12      29.71S FOG
PETERSBURG     CLOUDY    60  44  55 NW7       29.72F
$$




USA.gov is the U.S. government's official web portal to all federal, state and local government web resources and services.